Probability
0 0 0 0 0 0 0 0 0 0 0 0 0 0 0 0 0 0 0 0 0 0 0 0 0 0 0 0 0 0 0 0 0 0 0 0 0 0 0 0 0 0 0
0 0 0 0 0 0 0 0 0 0 0 0 0 0 0 0 0 0 0 0 0 0 0 0 0 0 0 0 0 0 0 0 0 0 0 0 0 0 0 0 0 0 0
0 0 0 0 0 0 0 0 0 0 0 0 0 0 0 0 0 0 0 0 0 0 0 0 0 0 0 0 0 0 0 0 0 0 0 0 0 0 0 0 0 0 0
0 0 0 0 0 0 0 0 0 0 0 0 0 0 0 0 0 0 0 0 0 0 0 0 0 0 0 0 0 0 0 0 0 0 0 0 0 0 0 0 0 0 0
0 0 0 0 0 0 0 0 0 0 0 0 0 0 0 0 0 0 0 0 0 0 0 0 0 0 0 0 0 0 0 0 0 0 0 0 0 0 0 0 0 0 0
0 0 0 0 0 0 0 0 0 0 0 0 0 0 0 0 0 0 0 0 0 0 0 0 0 0 0 0 0 0 0 0 0 0 0 0 0 0 0 0 0 0 0
0 0 0 0 0 0 0 0 0 0 0 0 0 0 0 0 0 0 0 0 0 0 0 0 0 0 0 0 0 0 0 0 0 0 0 0 0 0 0 0 0 0 0
0 0 0 0 0 0 0 0 0 0 0 0 0 0 0 0 0 0 0 0 0 0 0 0 0 0 0 0 0 0 0 0 0 0 0 0 0 0 0 0 0 0 0
0 0 0 0 0 0 0 0 0 0 0 0 0 0 0 0 0 0 0 0 0 0 0 0 0 0 0 0 0 0 0 0 0 0 0 0 0 0 0 0 0 0 0
0 0 0 0 0 0 0 0 0 0 0 0 0 0 0 0 0 0 0 0 0 0 0 0 0 0 0 0 0 0 0 0 0 0 0 0 0 0 0 0 0 0 0
0 0 0 0 0 0 0 0 0 0 0 0 0 0 0 0 0 0 0 0 0 0 0 0 0 0 0 0 0 0 0 0 0 0 0 0 0 0 0 0 0 0 0
0 0 0 0 0 0 0 0 0 0 0 0 0 0 0 0 0 0 0 0 0 0 0 0 0 0 0 0 0 0 0 0 0 0 0 0 0 0 0 0 0 0 0
0 0 0 0 0 0 0 0 0 0 0 0 0 0 0 0 0 0 0 0 0 0 0 0 0 0 0 0 0 0 0 0 0 0 0 0 0 0 0 0 0 0 0
0 0 0 0 0 0 0 0 0 0 0 0 0 0 0 0 0 0 0 0 0 0 0 0 0 0 0 0 0 0 0 0 0 0 0 0 0 0 0 0 0 0 0
0 0 0 0 0 0 0 0 0 0 0 0 0 0 0 0 0 0 0 0 0 0 0 0 0 0 0 0 0 0 0 0 0 0 0 0 0 0 0 0 0 0 0
0 0 0 0 0 0 0 0 0 0 0 0 0 0 0 0 0 0 0 0 0 0 0 0 0 0 0 0 0 0 0 0 0 0 0 0 0 0 0 0 0 0 0
0 0 0 0 0 0 0 0 0 0 0 0 0 0 0 0 0 0 0 0 0 0 0 0 0 0 0 0 0 0 0 0 0 0 0 0 0 0 0 0 0 0 0
0 0 0 0 0 0 0 0 0 0 0 0 0 0 0 0 0 0 0 0 0 0 0 0 0 0 0 0 0 0 0 0 0 0 0 0 0 0 0 0 0 0 0
0 0 0 0 0 0 0 0 0 0 0 0 0 0 0 0 0 0 0 0 0 0 0 0 0 0 0 0 0 0 0 0 0 0 0 0 0 0 0 0 0 0 0
0 0 0 0 0 0 0 0 0 0 0 0 0 0 0 0 0 0 0 0 0 0 0 0 0 0 0 0 0 0 0 0 0 0 0 0 0 0 0 0 0 0 0
0 0 0 0 0 0 0 0 0 0 0 0 0 0 0 0 0 0 0 0 0 0 0 0 0 0 0 0 0 0 0 0 0 0 0 0 0 0 0 0 0 0 0
0 0 0 0 0 0 0 0 0 0 0 0 0 0 0 0 0 0 0 0 0 0 0 0 0 0 0 0 0 0 0 0 0 0 0 0 0 0 0 0 0 0 0
0 0 0 0 0 0 0 0 0 0 0 0 0 0 0 0 0 0 0 0 0 0 0 0 0 0 0 0 0 0 0 0 0 0 0 0 0 0 0 0 0 0 0
0 0 0 0 0 0 0 0 0 0 0 0 0 0 0 0 0 0 0 0 0 0 0 0 0 0 0 0 0 0 0 0 0 0 0 0 0 0 0 0 0 0 0
0 0 0 0 0 0 0 0 0 0 0 0 0 0 0 0 0 0 0 0 0 0 0 0 0 0 0 0 0 0 0 0 0 0 0 0 0 0 0 0 0 0 0
0 0 0 0 0 0 0 0 0 0 0 0 0 0 0 0 0 0 0 0 0 0 0 0 0 0 0 0 0 0 0 0 0 0 0 0 0 0 0 0 0 0 0
Wind_Speed
8 8 8 8 8 9 8 9 9 9 9 9 8 8 7 7 6 6 6 6 6 5 5 5 5 3 3 2 2 2 1 1 4 4 2 5 6 7 8 6 7 6 8
7 7 8 8 9 9 9 9 10 10 9 9 9 8 8 7 6 7 7 6 6 6 5 5 4 3 3 2 2 2 1 1 2 6 5 5 6 7 7 8 7 7 6
6 8 8 9 9 10 10 10 10 10 10 9 9 9 8 7 7 6 7 6 6 5 5 4 3 3 3 2 2 1 1 2 2 4 6 5 5 6 7 6 6 5 6
7 8 9 9 9 10 10 10 10 10 11 9 8 8 8 7 7 7 7 7 6 5 4 4 3 3 2 1 1 1 1 2 2 4 5 5 5 5 5 7 8 6 7
7 8 8 8 9 9 10 10 9 9 10 10 10 8 7 6 6 7 7 6 6 5 4 3 2 2 2 1 1 1 1 2 3 4 5 6 5 7 7 6 8 8 6
8 8 8 9 9 9 10 10 10 10 9 9 9 9 7 5 10 11 8 6 5 5 4 3 2 1 1 2 3 3 3 3 3 4 5 7 8 7 6 7 7 8 7
8 8 9 9 10 10 10 10 11 10 9 9 8 8 7 8 12 11 10 6 5 4 4 3 1 1 0 1 3 4 4 6 6 4 5 7 7 7 7 7 6 6 6
9 9 9 10 10 10 10 10 9 8 9 8 8 8 7 7 11 11 11 6 5 4 3 2 1 0 1 2 2 2 2 3 5 3 4 5 4 4 4 5 6 6 6
10 10 10 11 11 11 11 10 8 8 8 7 7 7 7 7 10 10 10 5 4 3 2 1 1 1 3 4 2 2 3 3 6 8 7 7 9 9 6 3 3 4 5
11 10 9 10 11 11 11 9 6 8 8 8 7 6 6 5 8 9 9 4 3 2 1 1 1 2 4 4 2 2 4 4 3 4 5 6 5 6 7 2 2 2 3
9 9 9 8 9 9 9 7 9 8 8 7 7 5 4 4 6 7 7 4 3 3 2 1 2 4 5 5 4 2 5 5 3 3 3 3 3 2 2 2 1 2 2
10 10 9 8 8 8 10 8 8 9 9 8 7 5 3 3 3 5 6 5 4 3 2 2 2 5 5 5 4 4 6 4 1 2 2 3 3 3 3 2 2 2 2
10 10 9 9 7 8 10 11 8 7 7 7 6 6 4 3 3 5 4 4 4 3 2 3 4 5 4 2 3 4 3 1 1 2 3 3 3 3 2 2 2 2 2
11 10 9 10 9 7 6 7 8 8 7 7 6 6 5 4 3 3 2 2 2 2 1 1 3 3 1 1 1 2 1 1 1 2 3 3 2 2 2 1 1 2 2
10 9 9 8 9 8 6 4 6 4 5 7 6 6 7 6 6 8 5 4 3 3 2 1 1 1 1 1 1 1 1 1 1 2 2 3 3 2 2 1 1 1 1
10 9 8 7 7 7 7 5 5 5 6 7 8 7 4 6 8 9 8 7 7 6 4 2 3 2 2 2 2 2 1 2 2 2 2 3 3 3 3 1 1 1 2
9 9 8 8 8 8 8 8 7 5 5 6 8 9 8 9 9 9 8 7 6 6 4 3 3 3 3 3 2 2 2 2 2 2 3 3 3 3 2 2 2 2 2
7 8 8 7 7 8 8 7 7 8 6 4 4 8 9 9 9 8 9 6 3 3 3 4 4 4 3 3 3 3 3 2 2 3 3 3 2 2 2 2 2 3 3
6 6 5 5 5 5 5 5 5 6 5 4 3 4 5 7 8 8 7 4 4 4 4 4 4 4 3 3 3 3 3 3 3 3 3 3 3 3 3 3 3 3 3
4 6 6 6 6 6 6 6 6 6 6 6 6 6 4 4 4 4 4 3 4 4 4 4 4 4 4 4 3 3 3 4 4 3 3 3 3 3 4 4 3 3 3
4 5 7 5 5 6 6 7 6 6 7 7 6 7 11 6 6 6 5 5 5 5 5 4 4 4 4 4 3 4 5 4 4 4 4 4 3 3 3 3 4 4 3
3 4 4 5 5 5 5 5 5 6 6 6 4 5 12 6 5 5 5 5 5 5 4 4 4 4 4 5 4 5 5 5 5 4 4 4 4 4 3 3 4 3 3
3 4 4 4 4 5 5 5 5 6 6 5 5 5 5 5 5 6 6 5 5 4 4 4 5 5 4 4 5 5 6 6 5 5 5 4 4 4 4 4 5 4 4
4 4 5 4 5 5 6 6 6 6 6 6 6 6 6 6 6 6 6 5 5 5 5 5 5 7 8 6 5 5 6 6 5 5 7 6 5 5 4 5 5 5 5
4 4 5 5 5 6 6 6 6 6 6 6 6 6 6 6 6 6 5 5 5 5 6 6 5 6 8 9 7 6 8 10 8 5 5 5 6 6 5 6 5 5 5
4 4 4 4 5 5 5 6 6 6 6 6 6 6 6 6 6 6 5 5 5 5 6 6 7 8 8 7 9 10 10 11 10 9 6 6 6 6 6 5 6 6 6
Wind_Direction
185 180 174 172 164 159 159 157 150 145 143 142 140 134 128 124 122 118 115 116 113 104 94 95 88 82 77 64 57 54 37 338 285 296 311 330 330 333 332 330 328 329 331
173 167 166 157 153 154 151 147 144 140 138 138 136 129 126 124 123 124 123 120 118 113 106 102 96 90 80 65 55 43 17 343 302 305 315 326 325 326 327 326 330 331 326
156 156 154 153 153 151 146 143 139 136 132 131 131 132 131 128 124 122 123 119 114 113 114 113 108 98 84 63 46 27 354 339 315 304 309 314 316 323 328 324 320 321 326
151 153 154 153 150 145 141 139 137 136 134 131 127 127 127 125 125 124 121 117 114 110 109 109 107 104 103 78 41 357 332 325 310 305 306 314 316 321 327 331 332 333 327
150 150 146 138 135 134 133 131 129 127 128 128 125 121 122 125 131 131 126 125 123 119 111 103 98 95 82 67 11 322 325 318 314 315 314 319 324 334 336 330 325 324 320
153 148 140 137 134 134 133 131 127 124 124 126 129 131 131 131 138 136 133 130 130 129 126 114 101 95 39 7 343 331 329 316 310 307 312 317 318 323 322 324 324 330 326
151 147 147 144 141 140 137 134 134 133 131 130 131 133 131 137 139 136 133 130 130 131 130 128 122 109 40 313 315 325 324 315 311 302 298 302 307 316 317 318 320 316 303
155 155 154 150 144 142 139 138 136 135 138 136 138 135 129 137 140 137 135 127 127 129 134 141 151 196 293 296 283 295 297 297 303 296 273 283 287 298 300 305 305 303 289
167 166 164 157 151 150 149 145 139 138 136 134 137 137 135 139 144 143 138 130 129 132 141 159 187 231 288 314 310 295 297 294 310 309 302 306 314 321 327 324 326 330 317
176 167 161 158 156 156 151 144 135 137 135 132 131 133 135 139 150 149 145 138 140 145 156 183 227 267 291 303 279 270 288 292 295 307 311 314 319 321 330 324 298 299 300
153 148 151 153 151 146 138 136 136 134 130 128 128 129 133 142 155 157 158 150 156 160 178 206 245 279 289 292 291 256 281 302 294 292 298 299 303 303 311 313 287 260 263
144 147 149 146 142 141 138 135 136 138 136 136 136 137 138 144 159 165 170 172 165 167 193 212 242 270 283 292 297 297 309 325 317 302 300 299 299 298 298 297 288 275 249
146 148 146 141 139 146 148 147 145 146 148 153 156 157 159 160 175 180 188 192 191 180 200 232 251 267 285 304 312 320 337 337 302 292 291 290 290 289 294 298 295 300 288
152 151 150 148 145 143 145 152 155 161 161 161 166 166 164 172 185 188 187 195 205 207 208 247 267 274 274 337 331 338 352 306 275 274 283 286 295 302 300 300 298 320 315
152 152 153 152 151 149 144 154 158 163 173 170 173 166 169 185 198 191 180 189 190 193 168 151 168 216 223 270 281 280 294 322 304 292 289 294 298 298 292 295 288 298 281
156 160 160 156 153 151 145 131 150 151 163 168 166 165 175 181 180 191 198 202 203 197 174 184 205 210 219 231 242 256 249 256 268 272 273 278 284 287 288 281 264 252 264
166 165 163 163 162 161 161 159 155 152 167 177 179 182 184 185 192 198 203 201 203 196 195 200 207 212 222 228 232 237 244 247 251 254 259 265 272 274 272 270 265 260 262
163 165 166 168 168 169 171 171 167 165 168 181 197 199 196 198 200 203 202 189 197 196 199 207 212 215 220 226 232 237 245 247 241 245 251 255 255 257 259 259 254 250 257
164 166 164 160 161 163 163 165 170 173 172 165 165 200 202 202 202 206 198 195 198 204 206 212 213 216 221 226 231 235 238 240 238 236 240 243 244 243 248 249 250 250 241
168 166 161 160 161 163 166 172 178 180 183 187 195 189 166 165 192 201 198 193 200 209 210 216 218 220 222 225 230 234 240 240 236 232 234 237 238 238 242 243 240 239 234
165 165 164 166 177 179 180 185 185 186 195 201 202 192 188 191 200 200 203 205 207 211 213 217 220 221 222 222 223 230 237 241 234 230 230 230 230 238 241 240 240 235 235
165 170 177 185 184 187 188 187 187 195 202 202 196 204 209 198 199 204 210 214 214 214 212 213 220 220 217 216 216 223 232 239 236 230 229 228 228 233 235 233 234 230 224
172 177 185 190 189 189 188 192 196 199 202 202 195 196 206 207 207 211 214 214 214 218 215 215 225 231 227 223 219 219 226 231 227 221 223 225 224 225 225 227 226 224 224
187 192 196 195 196 201 204 204 205 205 204 203 203 206 210 212 214 216 215 214 217 220 219 219 225 232 234 232 227 226 230 234 227 223 218 220 223 224 222 224 225 224 227
199 206 209 207 206 210 212 211 211 211 210 210 210 212 213 214 219 221 218 217 221 227 229 226 228 233 237 237 236 234 240 245 238 222 215 216 221 221 221 223 222 220 219
214 218 222 219 216 215 216 217 216 215 217 217 217 215 213 215 221 222 219 220 224 229 233 231 230 233 237 239 241 242 241 243 239 226 213 212 215 220 216 220 219 218 217